Regional Weather Roundup
Issued by NWS State College, PA

Home | Current Version | Previous Version | Text Only | Print | Product List | Glossary Off
Versions: 1 2 3 4 5 6 7 8 9 10 11 12 13 14 15 16 17 18 19 20 21 22 23 24 25 26 27 28 29 30 31 32 33 34 35 36 37 38 39 40 41 42 43 44 45 46 47 48 49 50

000
ASUS41 KCTP 011410
RWRCTP

REGIONAL WEATHER ROUNDUP
NATIONAL WEATHER SERVICE STATE COLLEGE PA
1000 AM EDT SAT OCT 01 2016

Note: "fair" indicates few or no clouds below 12,000 feet with no
significant weather and/or obstructions to visibility.

* = STATION THAT DOES NOT REPORT PRECIPITATION /E.G. RAIN...SNOW...ETC/
    THUNDER OR FOG.

PAZ002>004-007>009-013>016-020>023-029>032-011500-
WESTERN PENNSYLVANIA

CITY           SKY/WX    TMP DP  RH WIND       PRES   REMARKS
ERIE           PTSUNNY   63  58  83 SE3       30.11F
MEADVILLE      CLOUDY    58  54  86 VRB7      30.11F
FRANKLIN*        N/A     55  52  88 SE12      30.14S
NEW CASTLE     CLOUDY    61  58  90 CALM      30.12S
BEAVER COUNTY  CLOUDY    61  57  88 SE6       30.11R
BUTLER*        PTSUNNY   61  55  82 E8        30.13F
PITTSBURGH INT PTSUNNY   61  58  90 SE7       30.10S
PITTSBURGH     SUNNY     62  56  80 E7        30.09F
INDIANA*       CLOUDY    59  55  88 E6        30.16S
LATROBE        MOSUNNY   63  57  82 CALM      30.11F
WASHINGTON CO* SUNNY     61  55  82 E3        30.10S
$$

PAZ004>006-010>012-017>019-024>028-033>037-041-042-045-046-049>053-011500-
CENTRAL PENNSYLVANIA

CITY           SKY/WX    TMP DP  RH WIND       PRES   REMARKS
BRADFORD       LGT RAIN  54  54 100 SE8       30.17F FOG
DUBOIS         CLOUDY    56  52  86 E9        30.14F
CLEARFIELD     CLOUDY    54  54 100 E6        30.18F FOG
JOHNSTOWN      CLOUDY    56  55  97 CALM      30.15S
ALTOONA        CLOUDY    55  55 100 NE3       30.18S FOG
STATE COLLEGE  CLOUDY    55  54  94 NE6       30.18F FOG
WILLIAMSPORT   CLOUDY    58  56  93 E9        30.19S
SELINSGROVE    CLOUDY    57  57 100 NW5       30.20S
FT INDIANTOWN  CLOUDY    56  54  92 E10       30.19S
CAPITAL CITY   CLOUDY    57  54  89 E6        30.18F FOG
HARRISBURG     NOT AVBL
YORK           NOT AVBL
$$

PAZ038>040-043-044-047-048-054-055-060>062-067>071-011500-
EASTERN PENNSYLVANIA

CITY           SKY/WX    TMP DP  RH WIND       PRES   REMARKS
SCRANTON       CLOUDY    58  53  84 E10G17    30.22R
MOUNT POCONO   FOG       51  51 100 E10       30.23S VSB 1/2
ALLENTOWN      CLOUDY    57  53  86 NE7       30.22F
QUAKERTOWN*    CLOUDY    57  55  94 E6        30.22S
READING        CLOUDY    57  54  89 NE7       30.18F
LANCASTER      CLOUDY    58  58 100 E12       30.17F
COATESVILLE    CLOUDY    55  55 100 E14       30.19F FOG
POTTSTOWN      CLOUDY    57  55  93 E7        30.22S
BLUE BELL      CLOUDY    55  54  94 NE8       30.20S
DOYLESTOWN     CLOUDY    59  56  89 VRB3      30.20S
WILLOW GROVE   NOT AVBL
NORTH PHILA    CLOUDY    60  58  92 NE9       30.22S
PHILADELPHIA   CLOUDY    60  57  89 NE12      30.19S
$$




USA.gov is the U.S. government's official web portal to all federal, state and local government web resources and services.